Location: Kavul?ru
(16.6288°N, 80.5832°E)
Time: 20:26:18
(UTC+00:00)

SL-24 DEB - Pass Details

Date: 15 May 2026
Orbit: 629 x 659 km, 92.0° (Epoch: 6 June)

Event Time Altitude Azimuth Distance (km) Brightness Sun altitude
Exits shadow 22:48:11 - 177° (S) 2,340 6.8 -18.1°
Reaches altitude 10° 22:48:53 10° 178° (S) 2,057 6.5 -17.9°
Maximum altitude 22:53:24 79° 264° (W) 665 4.0 -17.0°
Drops below altitude 10° 22:57:54 10° 351° (N) 2,044 6.9 -16.0°
Sets 23:00:07 0° 353° (N) 2,949 7.8 -15.5°
